Location: Lombard
(41.8800°N, 88.0080°W)
Time: 06:10:03
(UTC-06:00)

Transit 4A - Pass Details

Date: 02 December 2023
Orbit: 870 x 973 km, 66.8° (Epoch: 02 March)

Event Time Altitude Azimuth Distance (km) Brightness Sun altitude
Rises 06:53:52 0° 316° (NW) 3,578 - -2.0°
Exits shadow 06:54:06 - 316° (NW) 3,499 10.3 -2.0°
Reaches altitude 10° 06:57:00 10° 302° (WNW) 2,610 9.6 -1.5°
Maximum altitude 07:01:22 21° 255° (WSW) 1,902 9.2 -0.8°
Drops below altitude 10° 07:05:40 10° 208° (SSW) 2,548 10.3 -0.1°
Sets 07:08:42 0° 193° (SSW) 3,468 11.1 0.4°
